Weather History for Van, Turkey

Change the Weather History Date:

Saturday, May 4, 2013

  Actual Average Record
Temperature  
Mean Temperature 57 °F -  
Max Temperature 63 °F 66 °F 66 °F (2012)
Min Temperature 51 °F 45 °F 37 °F (2014)
Degree Days  
Heating Degree Days 8    
Growing Degree Days 7 (Base 50)    
Moisture  
Dew Point 40 °F    
Average Humidity 53    
Maximum Humidity 77    
Minimum Humidity 25    
Precipitation  
Precipitation 0.00 in 0.06 in - ()
Sea Level Pressure  
Sea Level Pressure 30.10 in    
Wind  
Wind Speed 7 mph ()    
Max Wind Speed 16 mph    
Max Gust Speed -    
Visibility 6.2 miles    
Events      
Averages and records for this station are not official NWS values.
T = Trace of Precipitation, MM = Missing Value Source: Averaged Metar Reports

Daily Weather History Graph

Daily Weather History Graph

Search for Another Location

Airport:

Trip Planner

Search our weather history database for the weather conditions in past years. The results will help you decide how hot, cold, wet, or windy it might be!

Date:

Astronomy

May. 04, 2013 Rise Set
Actual Time 5:06 AM EEST 7:01 PM EEST
Civil Twilight 4:37 AM EEST 7:29 PM EEST
Nautical Twilight 4:02 AM EEST 8:05 PM EEST
Astronomical Twilight 3:24 AM EEST 8:42 PM EEST
Moon 1:48 AM EEST (5/4) 1:39 PM EEST (5/4)
Length of Visible Light 14h 52m
Length of Day
13h 54m
Waning Crescent, 30% of the Moon is Illuminated
May 4
Waning Crescent
May 10
New
May 18
First Quarter
May 25
Full
May 31
Last Quarter

Hourly Weather History & Observations

Time (EEST) Temp. Dew Point Humidity Pressure Visibility Wind Dir Wind Speed Gust Speed Precip Events Conditions
12:50 AM 57.2 °F 28.4 °F 33% 30.09 in 6.2 mi East 12.7 mph - N/A   Scattered Clouds
1:50 AM 57.2 °F 30.2 °F 36% 30.09 in 6.2 mi ESE 16.1 mph - N/A   Scattered Clouds
3:00 AM 56 °F 30 °F 25%  in 6 mi ESE 12.7 mph - -   Partly Cloudy
3:50 AM 55.4 °F 30.2 °F 38% 30.09 in 6.2 mi NE 11.5 mph - N/A   Scattered Clouds
4:50 AM 51.8 °F 32.0 °F 47% 30.09 in 6.2 mi ENE 6.9 mph - N/A   Scattered Clouds
5:50 AM 53.6 °F 32.0 °F 44% 30.09 in 6.2 mi Variable 3.5 mph - N/A   Partly Cloudy
6:50 AM 57.2 °F 35.6 °F 44% 30.12 in 6.2 mi Variable 1.2 mph - N/A   Scattered Clouds
7:50 AM 57.2 °F 39.2 °F 51% 30.12 in 6.2 mi West 4.6 mph - N/A   Partly Cloudy
8:50 AM 57.2 °F 42.8 °F 59% 30.15 in 6.2 mi WSW 9.2 mph - N/A   Partly Cloudy
9:50 AM 57.2 °F 41.0 °F 55% 30.15 in 6.2 mi WSW 9.2 mph - N/A   Partly Cloudy
10:50 AM 59.0 °F 46.4 °F 63% 30.15 in 6.2 mi WSW 8.1 mph - N/A   Partly Cloudy
11:50 AM 59.0 °F 44.6 °F 59% 30.12 in 6.2 mi West 10.4 mph - N/A   Partly Cloudy
12:50 PM 60.8 °F 44.6 °F 55% 30.12 in 6.2 mi West 8.1 mph - N/A   Partly Cloudy
1:50 PM 60.8 °F 46.4 °F 59% 30.09 in 6.2 mi SW 6.9 mph - N/A   Mostly Cloudy
2:50 PM 62.6 °F 42.8 °F 48% 30.09 in 6.2 mi SSW 6.9 mph - N/A   Mostly Cloudy
3:00 PM 62 °F 43 °F 39%  in 6 mi SSW 6.9 mph - -   Partly Cloudy
3:50 PM 62.6 °F 42.8 °F 48% 30.06 in 6.2 mi WSW 4.6 mph - N/A   Mostly Cloudy
4:50 PM 60.8 °F 42.8 °F 52% 30.06 in 6.2 mi WSW 4.6 mph - N/A   Mostly Cloudy
5:50 PM 60.8 °F 42.8 °F 52% 30.06 in 6.2 mi West 4.6 mph - N/A   Mostly Cloudy
6:50 PM 57.2 °F 44.6 °F 63% 30.06 in 6.2 mi Variable 1.2 mph - N/A   Mostly Cloudy
7:50 PM 55.4 °F 46.4 °F 72% 30.06 in 6.2 mi Variable 2.3 mph - N/A   Scattered Clouds
8:50 PM 55.4 °F 48.2 °F 77% 30.09 in 6.2 mi Variable 1.2 mph - N/A   Scattered Clouds
9:00 PM 55 °F 48 °F 71%  in 6 mi East 1.2 mph - -   Partly Cloudy
9:50 PM 51.8 °F 41.0 °F 67% 30.09 in 6.2 mi South 4.6 mph - N/A   Scattered Clouds
10:50 PM 53.6 °F 42.8 °F 67% 30.09 in 6.2 mi Variable 4.6 mph - N/A   Scattered Clouds
11:50 PM 53.6 °F 35.6 °F 51% 30.09 in 6.2 mi WNW 1.2 mph - N/A   Scattered Clouds